Eastman, GA

5:13 AM EDT on May 23, 2017 (GMT -0400)
Heart Of Georgia Regional

Weather History for KEZM - February, 2013

Change the Weather History Date:

Friday, February 1, 2013

  Actual Average Record
Temperature  
Mean Temperature 43 °F -  
Max Temperature 57 °F 62 °F 78 °F (2016)
Min Temperature 28 °F 36 °F 28 °F (2013)
Degree Days  
Heating Degree Days 22    
Moisture  
Dew Point 20 °F    
Average Humidity 44    
Maximum Humidity 80    
Minimum Humidity 10    
Precipitation  
Precipitation 0.00 in - - ()
Sea Level Pressure  
Sea Level Pressure 30.32 in    
Wind  
Wind Speed 5 mph (WNW)    
Max Wind Speed 16 mph    
Max Gust Speed 24 mph    
Visibility 10 miles    
Events      
Averages and records for this station are not official NWS values.
T = Trace of Precipitation, MM = Missing Value Source: NWS Daily Summary

Daily Weather History Graph

Daily Weather History Graph

Search for Another Location

Airport or City:

Trip Planner

Search our weather history database for the weather conditions in past years. The results will help you decide how hot, cold, wet, or windy it might be!

Date:

Astronomy

Feb. 01, 2013 Rise Set
Actual Time 7:26 AM EST 6:06 PM EST
Civil Twilight 7:00 AM EST 6:32 PM EST
Nautical Twilight 6:31 AM EST 7:01 PM EST
Astronomical Twilight 6:02 AM EST 7:30 PM EST
Moon 11:47 PM EST (2/1) 10:22 AM EST (2/1)
Length of Visible Light 11h 31m
Length of Day
10h 40m
Waning Gibbous, 70% of the Moon is Illuminated
Feb 1
Waning Gibbous
Feb 3
Last Quarter
Feb 10
New
Feb 17
First Quarter
Feb 25
Full

Hourly Weather History & Observations

Time (EST) Temp. Windchill Dew Point Humidity Pressure Visibility Wind Dir Wind Speed Gust Speed Precip Events Conditions
12:15 AM 40.3 °F 38.2 °F 27.5 °F 60% 30.26 in 10.0 mi WSW 3.5 mph - N/A   Clear
12:35 AM 41.0 °F 38.0 °F 27.3 °F 58% 30.26 in 10.0 mi West 4.6 mph - N/A   Clear
12:55 AM 42.8 °F 40.1 °F 27.5 °F 55% 30.26 in 10.0 mi West 4.6 mph - N/A   Clear
1:15 AM 43.2 °F 40.5 °F 27.1 °F 53% 30.26 in 10.0 mi WSW 4.6 mph - N/A   Clear
1:35 AM 42.8 °F 39.3 °F 27.5 °F 55% 30.27 in 10.0 mi West 5.8 mph - N/A   Clear
1:55 AM 43.7 °F 41.1 °F 27.0 °F 52% 30.26 in 10.0 mi West 4.6 mph - N/A   Clear
2:15 AM 43.7 °F 42.1 °F 27.3 °F 53% 30.26 in 10.0 mi West 3.5 mph - N/A   Clear
2:35 AM 43.3 °F 41.7 °F 27.5 °F 54% 30.26 in 10.0 mi WSW 3.5 mph - N/A   Clear
3:15 AM 42.8 °F 40.1 °F 27.5 °F 55% 30.25 in 10.0 mi WSW 4.6 mph - N/A   Clear
3:35 AM 42.8 °F 40.1 °F 27.3 °F 54% 30.26 in 10.0 mi West 4.6 mph - N/A   Clear
4:15 AM 43.0 °F 40.3 °F 27.3 °F 54% 30.25 in 10.0 mi West 4.6 mph - N/A   Clear
4:35 AM 42.3 °F 39.4 °F 27.5 °F 56% 30.25 in 10.0 mi WSW 4.6 mph - N/A   Clear
4:55 AM 42.4 °F 39.6 °F 27.5 °F 56% 30.24 in 10.0 mi WSW 4.6 mph - N/A   Clear
5:15 AM 42.3 °F 39.4 °F 27.5 °F 56% 30.24 in 10.0 mi West 4.6 mph - N/A   Clear
5:35 AM 42.6 °F 39.9 °F 27.7 °F 56% 30.24 in 10.0 mi WSW 4.6 mph - N/A   Clear
6:15 AM 41.5 °F 38.6 °F 28.4 °F 60% 30.24 in 10.0 mi SW 4.6 mph - N/A   Clear
6:35 AM 41.4 °F 39.4 °F 28.4 °F 60% 30.25 in 10.0 mi SW 3.5 mph - N/A   Clear
6:55 AM 41.0 °F 38.0 °F 28.4 °F 61% 30.25 in 10.0 mi SW 4.6 mph - N/A   Clear
7:15 AM 41.0 °F 39.0 °F 28.8 °F 62% 30.25 in 10.0 mi WSW 3.5 mph - N/A   Clear
7:35 AM 41.4 °F 39.4 °F 29.1 °F 62% 30.26 in 10.0 mi WSW 3.5 mph - N/A   Clear
7:55 AM 41.9 °F 40.0 °F 29.1 °F 61% 30.27 in 10.0 mi SW 3.5 mph - N/A   Clear
8:15 AM 43.0 °F 41.3 °F 29.5 °F 59% 30.28 in 10.0 mi WSW 3.5 mph - N/A   Clear
8:35 AM 45.9 °F 40.8 °F 30.0 °F 54% 30.30 in 10.0 mi West 10.4 mph - N/A   Clear
8:55 AM 47.3 °F - 29.5 °F 50% 30.30 in 10.0 mi West 8.1 mph - N/A   Clear
9:15 AM 47.3 °F - 29.8 °F 51% 30.31 in 10.0 mi West 11.5 mph 18.4 mph N/A   Clear
9:35 AM 47.7 °F - 30.2 °F 51% 30.32 in 10.0 mi WNW 8.1 mph - N/A   Clear
9:55 AM 49.6 °F - 30.9 °F 49% 30.32 in 10.0 mi WNW 5.8 mph - N/A   Clear
10:15 AM 50.7 °F - 30.7 °F 46% 30.33 in 10.0 mi WNW 8.1 mph - N/A   Clear
10:35 AM 52.9 °F - 29.3 °F 40% 30.33 in 10.0 mi WNW 6.9 mph 17.3 mph N/A   Clear
10:55 AM 53.4 °F - 27.5 °F 37% 30.33 in 10.0 mi WNW 11.5 mph 19.6 mph N/A   Clear
11:15 AM 54.7 °F - 26.4 °F 34% 30.33 in 10.0 mi WNW 9.2 mph 16.1 mph N/A   Clear
11:35 AM 55.2 °F - 25.2 °F 31% 30.33 in 10.0 mi NNW 11.5 mph 24.2 mph N/A   Clear
11:55 AM 55.0 °F - 22.6 °F 28% 30.34 in 10.0 mi NW 12.7 mph 20.7 mph N/A   Clear
12:15 PM 55.9 °F - 21.9 °F 27% 30.34 in 10.0 mi WNW 9.2 mph 20.7 mph N/A   Clear
12:35 PM 56.3 °F - 19.2 °F 24% 30.33 in 10.0 mi NW 11.5 mph 19.6 mph N/A   Clear
12:55 PM 56.7 °F - 12.9 °F 18% 30.33 in 10.0 mi NNW 11.5 mph 18.4 mph N/A   Clear
1:15 PM 56.5 °F - 5.9 °F 13% 30.32 in 10.0 mi NW 16.1 mph 21.9 mph N/A   Clear
1:35 PM 56.7 °F - 7.2 °F 14% 30.31 in 10.0 mi WNW 10.4 mph 19.6 mph N/A   Clear
1:55 PM 56.8 °F - 2.5 °F 11% 30.31 in 10.0 mi NNW 12.7 mph 21.9 mph N/A   Clear
2:15 PM 57.4 °F - 1.8 °F 11% 30.31 in 10.0 mi WNW 9.2 mph - N/A   Clear
2:35 PM 56.5 °F - 1.0 °F 11% 30.31 in 10.0 mi NNW 9.2 mph 20.7 mph N/A   Clear
2:55 PM 56.5 °F - 1.4 °F 11% 30.31 in 10.0 mi North 9.2 mph 20.7 mph N/A   Clear
3:15 PM 56.3 °F - 0.3 °F 10% 30.31 in 10.0 mi WNW 9.2 mph - N/A   Clear
3:35 PM 56.1 °F - 0.7 °F 11% 30.31 in 10.0 mi NNW 9.2 mph 17.3 mph N/A   Clear
3:55 PM 55.6 °F - 2.7 °F 12% 30.31 in 10.0 mi NNW 6.9 mph - N/A   Clear
4:15 PM 54.7 °F - 0.7 °F 11% 30.32 in 10.0 mi NW 8.1 mph 16.1 mph N/A   Clear
4:35 PM 54.5 °F - 2.8 °F 12% 30.32 in 10.0 mi NNW 6.9 mph - N/A   Clear
4:55 PM 53.6 °F - 5.0 °F 14% 30.33 in 10.0 mi North 6.9 mph - N/A   Clear
5:15 PM 52.7 °F - 6.4 °F 15% 30.33 in 10.0 mi NNW 5.8 mph - N/A   Clear
5:35 PM 51.8 °F - 8.2 °F 17% 30.33 in 10.0 mi NNW 4.6 mph - N/A   Clear
6:15 PM 48.0 °F - 10.4 °F 22% 30.35 in 10.0 mi Calm Calm - N/A   Clear
6:35 PM 46.8 °F - 12.2 °F 25% 30.35 in 10.0 mi Calm Calm - N/A   Clear
6:55 PM 43.5 °F - 15.4 °F 32% 30.36 in 10.0 mi Calm Calm - N/A   Clear
7:15 PM 42.4 °F - 16.9 °F 36% 30.36 in 10.0 mi Calm Calm - N/A   Clear
7:35 PM 39.6 °F - 19.6 °F 45% 30.37 in 10.0 mi Calm Calm - N/A   Clear
7:55 PM 39.6 °F - 19.2 °F 44% 30.38 in 10.0 mi Calm Calm - N/A   Clear
8:15 PM 35.8 °F - 24.4 °F 63% 30.38 in 10.0 mi Calm Calm - N/A   Clear
8:35 PM 34.7 °F - 23.7 °F 64% 30.38 in 10.0 mi Calm Calm - N/A   Clear
8:55 PM 34.3 °F - 23.7 °F 65% 30.38 in 10.0 mi Calm Calm - N/A   Clear
9:15 PM 34.9 °F - 22.5 °F 61% 30.38 in 10.0 mi Calm Calm - N/A   Clear
9:35 PM 32.7 °F - 21.6 °F 64% 30.39 in 10.0 mi Calm Calm - N/A   Clear
9:55 PM 32.2 °F - 22.5 °F 67% 30.39 in 10.0 mi Calm Calm - N/A   Clear
10:15 PM 31.6 °F - 24.1 °F 74% 30.39 in 10.0 mi Calm Calm - N/A   Clear
10:35 PM 31.6 °F - 20.5 °F 63% 30.39 in 10.0 mi Calm Calm - N/A   Clear
10:55 PM 30.9 °F - 23.4 °F 74% 30.39 in 10.0 mi Calm Calm - N/A   Clear
11:15 PM 29.5 °F - 22.6 °F 76% 30.40 in 10.0 mi Calm Calm - N/A   Clear
11:35 PM 31.1 °F - 19.8 °F 63% 30.40 in 10.0 mi Calm Calm - N/A   Clear
11:55 PM 28.4 °F - 23.0 °F 80% 30.40 in 10.0 mi Calm Calm - N/A   Clear